• în Republica Moldova
  • Lista ţărilor
  • Pe 7 zile
  • Temperatura apei
  • Hartă satelitară
  • Meteo pe hartă
  • Widget-uri
  • user-avatar
    Intrare

    Meteo pe oră la Kerns

    Astăzi, 28 Iulie, Vineri

    Timp Temperatura Precipitaţii Vânt Presiune Umiditate
    00:00 +19°C° 0,1 mm 5 m/s 764 mmHg 95%
    01:00 +19°C° 0,1 mm 5 m/s 763 mmHg 96%
    02:00 +20°C° 0,1 mm 5 m/s 763 mmHg 95%
    03:00 +20°C° 0,1 mm 6 m/s 763 mmHg 95%
    04:00 +20°C° 0,1 mm 6 m/s 763 mmHg 94%
    05:00 +20°C° 0,1 mm 6 m/s 763 mmHg 94%
    06:00 +20°C° 0,1 mm 6 m/s 763 mmHg 93%
    07:00 +20°C° 0,1 mm 7 m/s 764 mmHg 92%
    08:00 +21°C° 0,1 mm 7 m/s 764 mmHg 87%
    09:00 +22°C° 0,1 mm 7 m/s 764 mmHg 81%
    10:00 +23°C° 0,1 mm 7 m/s 765 mmHg 75%
    11:00 +24°C° 0 mm 7 m/s 764 mmHg 71%
    12:00 +26°C° 0 mm 7 m/s 764 mmHg 66%
    13:00 +27°C° 0 mm 7 m/s 763 mmHg 61%
    14:00 +26°C° 0 mm 7 m/s 763 mmHg 61%
    15:00 +26°C° 0 mm 7 m/s 763 mmHg 61%
    16:00 +26°C° 0 mm 7 m/s 762 mmHg 62%
    17:00 +23°C° 0 mm 6 m/s 763 mmHg 71%
    18:00 +22°C° 0 mm 6 m/s 763 mmHg 80%
    19:00 +20°C° 0 mm 6 m/s 763 mmHg 88%
    20:00 +20°C° 0 mm 6 m/s 764 mmHg 90%
    21:00 +20°C° 0 mm 6 m/s 764 mmHg 91%
    22:00 +20°C° 0 mm 6 m/s 764 mmHg 93%
    23:00 +20°C° 0,1 mm 6 m/s 764 mmHg 92%

    Mâine, 29 Iulie, Sâmbătă

    Timp Temperatura Precipitaţii Vânt Presiune Umiditate
    00:00 +20°C° 0,1 mm 6 m/s 764 mmHg 92%
    01:00 +20°C° 0,1 mm 6 m/s 764 mmHg 91%
    02:00 +20°C° 0,1 mm 6 m/s 764 mmHg 91%
    03:00 +20°C° 0,1 mm 6 m/s 763 mmHg 91%
    04:00 +20°C° 0,1 mm 6 m/s 763 mmHg 90%
    05:00 +20°C° 0,1 mm 6 m/s 763 mmHg 91%
    06:00 +20°C° 0,1 mm 6 m/s 763 mmHg 92%
    07:00 +20°C° 0,1 mm 6 m/s 764 mmHg 92%
    08:00 +21°C° 0 mm 6 m/s 764 mmHg 85%
    09:00 +23°C° 0 mm 7 m/s 764 mmHg 77%
    10:00 +24°C° 0 mm 7 m/s 764 mmHg 70%
    11:00 +26°C° 0 mm 7 m/s 764 mmHg 66%
    12:00 +27°C° 0 mm 7 m/s 763 mmHg 62%
    13:00 +28°C° 0 mm 7 m/s 763 mmHg 57%
    14:00 +27°C° 0 mm 7 m/s 762 mmHg 59%
    15:00 +27°C° 0 mm 6 m/s 762 mmHg 60%
    16:00 +26°C° 0 mm 6 m/s 762 mmHg 61%
    17:00 +23°C° 0 mm 6 m/s 762 mmHg 70%
    18:00 +22°C° 0 mm 6 m/s 762 mmHg 79%
    19:00 +20°C° 0 mm 5 m/s 763 mmHg 87%
    20:00 +20°C° 0 mm 5 m/s 763 mmHg 89%
    21:00 +19°C° 0 mm 5 m/s 763 mmHg 90%
    22:00 +19°C° 0 mm 5 m/s 763 mmHg 92%
    23:00 +19°C° 0 mm 5 m/s 763 mmHg 92%

    Poimâine, 30 Iulie, Duminică

    Timp Temperatura Precipitaţii Vânt Presiune Umiditate
    00:00 +19°C° 0 mm 5 m/s 763 mmHg 92%
    01:00 +19°C° 0 mm 5 m/s 763 mmHg 92%
    02:00 +19°C° 0 mm 5 m/s 762 mmHg 92%
    03:00 +19°C° 0 mm 5 m/s 762 mmHg 93%
    04:00 +19°C° 0 mm 4 m/s 762 mmHg 93%
    05:00 +19°C° 0 mm 5 m/s 762 mmHg 93%
    06:00 +19°C° 0 mm 5 m/s 762 mmHg 93%
    07:00 +19°C° 0 mm 5 m/s 762 mmHg 94%
    08:00 +21°C° 0 mm 5 m/s 763 mmHg 86%
    09:00 +23°C° 0 mm 6 m/s 763 mmHg 78%
    10:00 +26°C° 0 mm 6 m/s 763 mmHg 70%
    11:00 +26°C° 0 mm 6 m/s 763 mmHg 67%
    12:00 +27°C° 0 mm 5 m/s 762 mmHg 65%
    13:00 +28°C° 0 mm 5 m/s 762 mmHg 63%
    14:00 +27°C° 0,1 mm 5 m/s 761 mmHg 64%
    15:00 +27°C° 0,1 mm 5 m/s 761 mmHg 65%
    16:00 +27°C° 0,1 mm 5 m/s 761 mmHg 66%
    17:00 +25°C° 0 mm 5 m/s 761 mmHg 75%
    18:00 +22°C° 0 mm 4 m/s 762 mmHg 83%
    19:00 +20°C° 0 mm 4 m/s 762 mmHg 92%
    20:00 +20°C° 0,1 mm 4 m/s 762 mmHg 93%
    21:00 +20°C° 0,1 mm 4 m/s 763 mmHg 95%
    22:00 +20°C° 0,1 mm 3 m/s 763 mmHg 96%
    23:00 +20°C° 0,2 mm 3 m/s 763 mmHg 96%

    31 Iulie, Luni

    Timp Temperatura Precipitaţii Vânt Presiune Umiditate
    00:00 +20°C° 0,2 mm 3 m/s 763 mmHg 97%
    01:00 +20°C° 0,2 mm 3 m/s 763 mmHg 97%
    02:00 +20°C° 0,2 mm 3 m/s 762 mmHg 97%
    03:00 +20°C° 0,2 mm 3 m/s 762 mmHg 97%
    04:00 +20°C° 0,2 mm 3 m/s 762 mmHg 98%
    05:00 +20°C° 0,2 mm 3 m/s 762 mmHg 98%
    06:00 +20°C° 0,2 mm 3 m/s 762 mmHg 98%
    07:00 +20°C° 0,2 mm 3 m/s 763 mmHg 98%
    08:00 +22°C° 0,1 mm 3 m/s 763 mmHg 94%
    09:00 +24°C° 0,1 mm 3 m/s 763 mmHg 89%
    10:00 +25°C° 0,1 mm 3 m/s 763 mmHg 85%
    11:00 +26°C° 0,1 mm 3 m/s 763 mmHg 82%
    12:00 +26°C° 0,1 mm 3 m/s 762 mmHg 79%
    13:00 +27°C° 0,1 mm 4 m/s 761 mmHg 76%
    14:00 +27°C° 0,1 mm 4 m/s 761 mmHg 76%
    15:00 +27°C° 0,1 mm 4 m/s 761 mmHg 75%
    16:00 +28°C° 0,1 mm 4 m/s 761 mmHg 74%
    17:00 +26°C° 0,2 mm 4 m/s 761 mmHg 81%
    18:00 +25°C° 0,2 mm 4 m/s 762 mmHg 89%
    19:00 +22°C° 0,2 mm 4 m/s 762 mmHg 96%
    20:00 +22°C° 0,3 mm 4 m/s 762 mmHg 97%
    21:00 +22°C° 0,3 mm 4 m/s 763 mmHg 97%
    22:00 +21°C° 0,3 mm 4 m/s 763 mmHg 97%
    23:00 +21°C° 0,3 mm 4 m/s 763 mmHg 97%

    1 August, Marţi

    Timp Temperatura Precipitaţii Vânt Presiune Umiditate
    00:00 +21°C° 0,3 mm 4 m/s 762 mmHg 97%
    01:00 +22°C° 0,3 mm 3 m/s 762 mmHg 98%
    02:00 +22°C° 0,3 mm 3 m/s 762 mmHg 98%
    03:00 +22°C° 0,3 mm 3 m/s 761 mmHg 98%
    04:00 +22°C° 0,3 mm 3 m/s 761 mmHg 98%
    05:00 +22°C° 0,2 mm 3 m/s 761 mmHg 98%
    06:00 +22°C° 0,2 mm 3 m/s 762 mmHg 98%
    07:00 +22°C° 0,2 mm 3 m/s 762 mmHg 98%
    08:00 +24°C° 0,2 mm 3 m/s 763 mmHg 94%
    09:00 +23°C° 0,2 mm 4 m/s 763 mmHg 91%
    10:00 +25°C° 0,2 mm 4 m/s 763 mmHg 88%
    11:00 +26°C° 0,2 mm 4 m/s 762 mmHg 84%
    12:00 +26°C° 0,2 mm 4 m/s 762 mmHg 81%
    13:00 +27°C° 0,2 mm 4 m/s 761 mmHg 77%
    14:00 +27°C° 0,1 mm 4 m/s 761 mmHg 76%
    15:00 +27°C° 0,1 mm 4 m/s 761 mmHg 75%
    16:00 +27°C° 0,1 mm 4 m/s 761 mmHg 74%
    17:00 +26°C° 0,1 mm 4 m/s 761 mmHg 81%
    18:00 +23°C° 0,1 mm 4 m/s 762 mmHg 89%
    19:00 +22°C° 0,1 mm 4 m/s 762 mmHg 96%
    20:00 +21°C° 0,1 mm 4 m/s 762 mmHg 96%
    21:00 +21°C° 0,1 mm 4 m/s 763 mmHg 96%
    22:00 +21°C° 0,1 mm 4 m/s 763 mmHg 97%
    23:00 +20°C° 0 mm 4 m/s 763 mmHg 97%

    2 August, Miercuri

    Timp Temperatura Precipitaţii Vânt Presiune Umiditate
    00:00 +20°C° 0 mm 4 m/s 762 mmHg 97%
    01:00 +20°C° 0 mm 4 m/s 762 mmHg 97%
    02:00 +20°C° 0 mm 4 m/s 762 mmHg 96%
    03:00 +20°C° 0 mm 4 m/s 762 mmHg 96%
    04:00 +20°C° 0 mm 4 m/s 761 mmHg 95%
    05:00 +20°C° 0 mm 4 m/s 762 mmHg 95%
    06:00 +20°C° 0 mm 5 m/s 762 mmHg 94%
    07:00 +20°C° 0 mm 5 m/s 762 mmHg 93%
    08:00 +21°C° 0 mm 5 m/s 762 mmHg 86%
    09:00 +23°C° 0 mm 5 m/s 763 mmHg 80%
    10:00 +25°C° 0 mm 5 m/s 763 mmHg 73%
    11:00 +26°C° 0 mm 5 m/s 762 mmHg 67%
    12:00 +27°C° 0 mm 5 m/s 761 mmHg 62%
    13:00 +28°C° 0 mm 5 m/s 761 mmHg 56%
    14:00 +28°C° 0 mm 5 m/s 761 mmHg 57%
    15:00 +28°C° 0 mm 5 m/s 760 mmHg 58%
    16:00 +28°C° 0 mm 5 m/s 760 mmHg 59%
    17:00 +26°C° 0 mm 5 m/s 760 mmHg 68%
    18:00 +23°C° 0 mm 4 m/s 761 mmHg 78%
    19:00 +21°C° 0 mm 4 m/s 761 mmHg 88%
    20:00 +20°C° 0 mm 4 m/s 761 mmHg 90%
    21:00 +20°C° 0 mm 4 m/s 762 mmHg 92%
    22:00 +20°C° 0 mm 4 m/s 762 mmHg 94%
    23:00 +20°C° 0 mm 4 m/s 762 mmHg 95%
    Arată mai mult